Regional Weather Roundup
Issued by NWS Northern Indiana

Home | Current Version | Previous Version | Graphics & Text | Print | Product List | Glossary On
Versions: 1 2 3 4 5 6 7 8 9 10 11 12 13 14 15 16 17 18 19 20 21 22 23 24 25 26 27 28 29 30 31 32 33 34 35 36 37 38 39 40 41 42 43 44 45 46 47 48 49 50
504
ASUS43 KIWX 260510
RWRIWX

KIWX WEATHER ROUNDUP
NATIONAL WEATHER SERVICE NORTHERN INDIANA
100 AM EDT MON SEP 26 2016

NOTE: "FAIR" INDICATES FEW OR NO CLOUDS BELOW 12,000 FEET WITH NO
SIGNIFICANT WEATHER AND/OR OBSTRUCTIONS TO VISIBILITY.

* THESE STATIONS ARE NOT UNDER NWS QUALITY CONTROL. THEY ALSO MAY NOT
  REPORT WEATHER SUCH AS PRECIPITATION OR FOG.

INZ001>027-260600-
NORTHERN INDIANA

CITY           SKY/WX    TMP DP  RH WIND       PRES   REMARKS
GARY*          MOCLDY    70  57  63 W14G21    29.96R
VALPARAISO     PTCLDY    70  64  81 W14       29.95R
MICHIGAN CITY* CLOUDY    70  63  78 MISG      29.96R
LAPORTE*       CLOUDY    72  72 100 W7        29.95R
KNOX*          CLOUDY    68  54  60 SW5       29.94S
SOUTH BEND     PTCLDY    69  67  93 SW9       29.93S
GOSHEN         MOCLDY    69  64  84 SW6       29.93S
MONTICELLO*    CLOUDY    70  64  81 SW6       29.95F
LOGANSPORT*    MOCLDY    70  66  88 W8        29.96S
ROCHESTER*     CLOUDY    73  70  88 W9        29.96R
WARSAW*        MOCLDY    72  63  73 SW6       29.94S
ANGOLA*          N/A     64  57  77 SE5       29.95F
FORT WAYNE     LGT RAIN  72  66  81 S13       29.95F
HUNTINGTON*    PTCLDY    71  68  90 S6        29.95F
PERU/GRISSOM   PTCLDY    71  67  85 S9        29.93F
MARION*        CLOUDY    71  66  83 S7        29.97F HAZE

$$
INZ028>050-260600-
CENTRAL INDIANA

CITY           SKY/WX    TMP DP  RH WIND       PRES   REMARKS
LAFAYETTE      PTCLDY    69  68  96 W6        29.96S
MUNCIE*        LGT RAIN  73  67  81 S9        29.98F
INDIANAPOLIS   CLOUDY    73  68  84 S6        29.97F

$$
MIZ043>046-050>051-056>058-064>065-071>073-077>080-260600-
SOUTHWEST LOWER MICHIGAN

CITY           SKY/WX    TMP DP  RH WIND       PRES   REMARKS
BATTLE CREEK   PTCLDY    65  55  70 S13       29.92F
BENTON HARBOR  CLOUDY    71  64  78 W13G21    29.92R
COLDWATER*     CLOUDY    62  56  81 SE7       29.93F
HILLSDALE*     CLOUDY    61  54  77 SE7       29.96F
HOLLAND        LGT RAIN  70  66  87 SW12      29.90R FOG
GRAND RAPIDS   LGT RAIN  65  57  75 S8        29.89S
KALAMAZOO      MOCLDY    67  54  63 S7        29.92F
STURGIS*       PTCLDY    64  57  76 SE8       29.92F
THREE RIVERS*  MOCLDY    67  57  69 S7        29.93S

$$
OHZ001>008-015>018-024>025-260600-
NORTHWEST OHIO

CITY           SKY/WX    TMP DP  RH WIND       PRES   REMARKS
WAUSEON*       CLOUDY    64  55  72 SE6       29.96F
DEFIANCE       CLOUDY    68  56  65 S5        29.96F
FINDLAY        PTCLDY    68  52  56 S10       29.98F
TOLEDO EXPRESS CLOUDY    63  55  75 SE3       29.96F
TOLEDO METCALF PTCLDY    61  55  81 SE6       29.98F
LIMA           CLOUDY    69  57  65 S9        29.99F

$$
AND FOR LAKE MICHIGAN COASTAL AND OPEN LAKE BUOY OBSERVATIONS

STATION/POSITION TEMP    WIND        PRES    VSBY  WAVE
                 AIR SEA DIR/SP/G                  HT/PER
                 (F)     (DEG/KT/KT) (MB)    (MI)  (FT/S)
CALUMET HARBOR    69     260/  7/ 21 1013.9R
MICHIGAN CITY     69     280/ 22/ 23   N/A
BURNS HARBOR      70     280/ 18/ 23 1013.9S
SAINT JOSEPH      69     300/ 14/ 20 1014.2
SOUTH LAKE BUOY   69 72  280/ 23/ 29 1011.6R         3/ 3
4 MI NW BRIDGMAN  70 66  310/ 19/ 25 1013.2          2/ 3
MICHIGAN CITY     70 68  310/ 16/ 23   N/A           2/ 2

$$
&&




USA.gov is the U.S. government's official web portal to all federal, state and local government web resources and services.